Location: Martley
(52.2333°N, 2.3667°W)
Time: 23:25:34
(UTC+00:00)

Cosmos 332 Rocket - Pass Details

Date: 11 December 2019
Orbit: 683 x 703 km, 74.0° (Epoch: 26 January)

Event Time Altitude Azimuth Distance (km) Brightness Sun altitude
Rises 06:27:05 0° 194° (SSW) 3,081 7.2 -14.4°
Reaches altitude 10° 06:29:24 10° 192° (SSW) 2,167 6.4 -14.0°
Maximum altitude 06:34:15 66° 111° (ESE) 769 4.3 -13.3°
Drops below altitude 10° 06:39:07 10° 30° (NNE) 2,177 6.5 -12.6°
Sets 06:41:27 0° 28° (NNE) 3,097 7.2 -12.3°
